Preview of NWS' New Version of Forecast
This preview is not operational and should not be used for support decisions.

Regional Weather Roundup (RWR)

Issued by National Weather Service (NWS)

                            
000
ASPQ40 PGUM 200610
RWRPQ 
WEATHER ROUNDUP FOR THE MARIANAS AND MICRONESIA
NATIONAL WEATHER SERVICE TIYAN GU
400 PM CHST SAT JUL 20 2019

GUZ001>004-200700-
MARIANA ISLANDS-
  
CITY           SKY/WX    TMP DP  RH WIND       PRES   REMARKS
GUAM AIRPORT   MOSUNNY   84  75  74 SE5       29.80F HX  92           
ANDERSEN AFB   PTSUNNY   84  79  84 SE5       29.83F HX  96           
ROTA AIRPORT   PTSUNNY   82  73  74 S12       29.79F                  
TINIAN AP      PTSUNNY   90  77  66 S6        29.79F HX 102           
SAIPAN AP      MOSUNNY   84  79  84 SE10      29.80F HX  96           

$$

PMZ161-200700-
REPUBLIC OF PALAU-
  
CITY           SKY/WX    TMP DP  RH WIND       PRES   REMARKS
KOROR AP       PTSUNNY   86  77  74 W6        29.74F HX  97           
KOROR WSO      NOT AVBL                                               

$$

PMZ171>174-200700-
FEDERATED STATES OF MICRONESIA-
  
CITY           SKY/WX    TMP DP  RH WIND       PRES   REMARKS
YAP AIRPORT    PTSUNNY   88  77  70 VRB6      29.76F HX 100           
CHUUK AP       NOT AVBL                                               
POHNPEI AP     PTSUNNY   86  77  74 NE6       29.76S HX  97           
POHNPEI WSO    MOSUNNY   84  75  74 NE5       29.80R HX  92           
KOSRAE AP      NOT AVBL                                               

$$

PMZ181-200700-
REPUBLIC OF THE MARSHALL ISLANDS-
  
CITY           SKY/WX    TMP DP  RH WIND       PRES   REMARKS
KWAJALEIN AP   SUNNY     88  75  66 CALM      29.77R HX  97           
MAJURO AP      NOT AVBL                                               
MAJURO WSO     MOSUNNY   86  75  70 S3        29.76R HX  95           

$$